Theta_e
339 332 320 320 319 326 333 337 338 339 339 335 333 336 328 324 322 320 319 318 318 319 320 320 321 324 325 324 324 323 324 324 321 321 322 323 327 328 331 333 333 330 323
341 328 322 322 319 324 332 336 338 339 340 337 334 336 328 325 323 322 320 319 319 319 321 322 324 325 325 324 325 327 325 325 327 323 322 321 326 334 334 332 322 323 326
340 329 324 324 320 322 327 332 336 339 340 339 335 336 328 325 324 323 321 320 319 319 321 323 324 325 325 325 326 326 327 337 336 337 337 331 321 329 332 327 320 319 320
342 330 325 327 324 321 321 323 329 335 338 338 337 337 328 326 325 324 323 322 321 320 321 323 324 325 325 328 330 332 331 338 338 336 335 336 327 321 320 319 319 318 319
344 326 326 328 328 325 324 323 323 327 333 336 336 337 327 326 325 324 324 323 322 321 321 324 326 326 327 330 330 331 331 337 339 338 337 336 334 326 323 320 320 319 318
345 332 328 329 331 330 328 327 326 325 328 333 334 334 327 325 325 325 325 324 324 323 322 322 326 328 329 330 331 330 327 335 336 337 337 336 334 330 326 327 326 321 319
345 343 331 330 331 332 331 330 329 328 328 329 331 331 326 326 325 325 325 325 325 325 324 323 323 325 326 328 330 331 329 335 335 337 337 334 337 326 329 327 326 325 321
343 345 340 333 332 332 332 332 331 330 329 329 329 328 326 325 325 326 326 326 326 326 326 325 324 324 323 323 325 330 330 329 336 336 337 336 338 331 326 328 328 327 326
343 345 339 334 334 333 333 332 332 331 330 330 328 327 326 326 326 326 326 326 326 326 326 326 326 325 325 324 324 323 323 324 329 335 337 338 330 333 332 330 328 329 329
343 344 331 332 334 334 333 333 333 332 331 330 329 329 328 328 328 328 327 326 326 325 326 326 326 326 326 325 324 324 324 324 323 332 336 336 336 335 332 333 332 329 328
343 346 334 331 333 333 333 333 334 334 334 333 331 331 331 331 331 330 329 327 327 326 326 326 326 326 326 326 326 327 328 326 328 336 338 338 335 333 329 331 334 333 332
342 344 345 338 332 333 336 334 333 334 335 335 334 333 333 332 332 336 335 335 331 331 327 327 327 328 329 330 335 334 336 333 335 336 335 336 336 334 331 328 334 333 333
341 341 343 345 343 341 344 342 335 334 334 335 336 336 336 334 334 337 337 337 335 333 328 328 331 333 334 334 334 336 334 333 334 335 335 334 335 334 333 331 333 333 333
342 340 341 343 343 339 341 340 337 340 340 339 338 337 337 336 336 336 335 335 334 335 332 333 332 332 332 332 333 333 333 332 333 333 333 332 333 333 332 332 334 334 333
342 342 341 343 343 340 341 341 341 341 341 340 341 338 337 336 336 335 334 334 333 328 329 333 332 331 331 331 329 332 333 331 332 331 331 330 331 332 334 334 334 332 329
338 343 342 342 342 341 342 342 342 341 341 339 337 336 336 335 334 332 331 332 328 327 324 326 332 330 328 329 329 331 329 329 330 329 328 329 329 331 333 333 332 330 327
339 343 343 342 341 342 341 342 341 342 341 339 338 337 335 333 332 331 330 328 327 326 326 319 326 329 328 327 328 325 328 327 327 329 330 330 328 329 331 330 328 327 326
337 342 344 343 341 340 341 341 339 338 338 337 337 336 334 332 332 331 329 328 324 317 314 316 327 328 329 329 329 326 329 326 326 327 328 329 329 328 327 327 327 327 325
335 341 345 344 344 343 341 339 338 338 338 336 335 333 332 332 331 329 326 324 320 313 318 316 323 327 326 327 328 327 325 326 325 325 326 327 327 327 328 327 325 323 323
329 345 345 345 344 343 341 340 337 337 336 335 334 333 328 328 326 324 322 320 317 315 314 316 319 322 325 325 323 323 324 324 324 325 324 324 323 324 323 324 322 321 319
346 346 344 343 342 339 341 338 338 336 334 335 332 328 327 326 324 322 321 321 319 314 314 314 313 317 322 322 323 320 320 322 323 323 322 321 321 320 316 320 318 316 314
343 344 343 341 339 339 339 338 337 334 334 332 328 326 326 325 325 324 324 320 316 313 313 314 315 315 320 323 323 320 320 319 320 320 321 317 319 317 314 313 316 314 311
335 338 338 339 337 337 338 337 336 333 332 329 327 327 325 325 325 324 322 316 314 317 318 320 318 316 316 320 320 319 320 319 318 318 319 319 317 316 317 315 311 308 310
334 336 336 336 335 337 337 336 334 333 331 328 326 325 325 324 321 321 320 319 320 320 320 319 318 317 315 315 318 319 318 319 319 316 317 317 317 317 316 313 311 307 310
332 335 336 335 337 336 335 334 333 330 328 326 325 325 323 321 320 320 319 317 315 314 313 312 312 312 311 314 315 317 318 318 318 319 316 315 314 315 314 314 313 310 308
331 333 335 334 334 334 332 330 330 329 327 326 324 321 322 321 319 317 315 314 314 312 311 311 311 310 309 308 310 311 315 315 316 316 316 315 313 313 312 312 311 310 307
Wind_Speed
13 13 16 15 15 17 16 15 15 14 11 10 9 6 5 6 7 7 8 9 9 9 9 9 9 9 10 10 10 10 11 11 11 12 13 15 17 18 18 18 8 13 13
13 13 17 15 15 16 16 15 14 14 11 10 10 7 5 5 5 6 7 8 9 8 8 9 9 9 10 11 11 11 13 15 15 14 12 13 14 14 15 14 7 11 11
12 15 18 15 14 14 15 14 13 13 11 10 10 8 6 5 5 4 5 6 7 7 7 8 9 9 10 10 11 12 14 16 18 18 16 9 10 12 12 9 8 10 10
11 18 19 17 14 14 13 13 13 12 12 11 11 9 7 6 5 4 4 5 6 6 6 6 7 8 9 10 11 13 16 16 16 12 9 6 5 8 9 9 9 10 9
9 21 19 17 16 14 14 13 13 13 12 12 11 10 8 7 5 5 4 4 4 5 5 5 6 7 8 9 8 9 12 13 11 15 13 5 0 5 7 9 9 9 11
12 15 19 18 17 15 14 13 12 12 12 12 12 11 9 8 6 5 4 4 4 4 4 4 5 5 6 5 4 6 10 11 6 4 11 8 5 2 4 5 7 8 8
15 16 17 19 18 16 15 14 13 12 12 12 12 11 10 8 7 6 6 5 5 5 4 4 4 5 5 4 4 5 6 7 4 5 9 9 9 2 6 6 6 6 7
16 16 14 19 19 17 16 15 14 13 12 12 12 11 10 9 9 8 7 7 6 6 6 5 6 6 6 6 5 5 5 5 6 2 14 12 5 3 3 5 5 5 5
12 13 15 21 21 19 17 15 14 13 13 12 12 12 11 10 9 9 9 9 9 8 8 8 7 7 7 7 8 7 7 7 8 6 9 9 12 11 2 3 5 6 6
17 17 11 22 22 20 19 17 15 14 13 13 13 13 12 11 11 11 11 11 11 11 10 10 9 9 8 8 8 9 9 9 7 6 12 9 8 9 2 5 6 6 7
10 11 11 20 22 20 19 18 17 16 15 15 15 14 13 12 11 12 13 14 14 14 13 11 10 9 9 9 9 9 11 11 8 11 22 14 9 8 8 8 9 8 8
12 12 9 12 16 18 14 17 18 17 17 16 16 15 15 12 10 9 12 13 16 17 15 13 10 9 9 7 8 12 13 9 10 16 20 12 14 9 11 10 11 11 11
18 15 14 15 12 13 15 12 12 18 17 15 15 13 11 11 13 12 14 15 19 20 17 14 8 4 5 6 10 9 11 14 16 19 16 13 13 14 14 14 15 14 13
19 18 17 14 14 16 14 13 6 8 5 7 7 12 13 11 12 11 12 13 17 23 24 13 4 6 4 3 7 7 13 15 13 16 14 15 10 13 15 17 17 15 16
17 20 20 17 15 17 18 13 10 13 14 16 14 16 15 15 14 13 15 15 20 26 24 9 4 4 4 7 12 13 10 10 9 8 5 7 8 8 10 13 15 16 14
10 20 21 20 15 16 20 17 19 16 18 23 20 17 18 17 17 13 16 17 21 23 24 13 9 3 10 13 13 11 10 7 8 8 10 11 8 9 13 19 16 10 8
7 18 21 24 16 16 18 17 23 25 19 20 18 17 15 17 13 18 17 31 35 26 32 12 12 13 8 11 15 11 6 6 9 7 9 10 10 13 20 17 6 4 1
11 14 20 24 16 15 21 22 19 19 20 17 17 18 17 12 14 19 22 18 23 2 5 9 10 10 12 12 9 6 5 7 7 6 10 13 14 14 17 15 11 6 4
8 19 21 18 18 18 20 20 18 16 16 15 14 14 12 12 14 15 12 14 10 8 7 5 12 5 6 11 12 9 6 4 5 10 11 14 16 17 14 14 7 7 12
9 18 21 20 19 18 17 16 16 14 13 13 10 9 6 7 8 9 8 6 9 6 6 8 11 12 5 14 12 13 8 9 8 11 13 14 14 15 10 15 10 10 11
16 20 20 18 16 18 19 17 15 15 12 10 8 7 8 9 7 5 5 5 7 7 6 5 6 6 9 13 12 9 8 9 10 13 13 13 15 13 7 12 10 8 8
18 18 14 14 14 17 17 15 15 13 15 10 8 9 6 5 7 9 11 12 12 11 9 7 9 9 12 12 12 10 5 9 12 17 19 18 22 15 16 10 12 10 11
14 15 13 13 12 14 15 15 15 17 13 12 11 11 5 7 11 11 10 9 9 8 9 13 13 12 13 15 15 12 6 5 8 15 22 21 21 18 19 16 13 11 15
13 14 14 13 12 15 15 14 15 14 13 11 9 6 7 9 7 7 8 11 13 15 15 13 15 16 17 19 13 15 17 18 8 6 13 21 24 22 19 17 16 15 19
13 14 15 15 15 16 15 14 16 9 11 9 9 8 9 8 8 8 9 8 8 8 8 9 12 12 12 15 17 12 11 17 19 17 8 10 17 23 23 22 21 18 19
14 16 18 21 21 20 16 12 13 11 8 5 8 8 10 10 10 9 8 6 5 6 9 10 11 12 12 14 17 18 17 10 13 16 16 15 14 17 22 22 24 21 20
Wind_Direction
170 178 161 156 160 159 158 162 165 166 165 166 161 147 124 110 102 99 97 95 91 91 98 102 104 109 115 117 118 118 113 104 99 97 101 104 104 104 101 95 110 102 98
178 173 161 156 157 159 159 164 168 169 173 175 174 166 148 131 115 111 109 106 101 96 97 106 111 112 112 112 110 103 96 91 88 86 90 98 104 109 114 116 91 100 95
183 174 162 159 155 158 161 165 171 174 180 183 183 180 169 155 142 133 120 110 102 98 98 105 113 117 117 114 111 103 99 95 90 88 74 54 102 114 121 125 115 107 103
200 178 169 164 159 159 160 164 172 180 186 188 188 190 185 179 171 162 143 126 115 109 109 111 120 125 124 118 111 107 109 97 94 84 90 65 52 112 123 123 118 113 109
193 174 172 171 168 165 164 166 170 178 187 190 192 196 196 196 195 186 172 155 140 133 131 130 131 134 135 132 117 113 114 114 121 120 127 148 317 111 128 124 117 118 117
169 181 175 179 177 177 175 173 174 177 184 192 195 200 204 207 208 207 202 190 177 170 162 157 152 153 153 152 144 131 117 132 117 111 148 220 223 76 144 133 120 125 118
165 192 181 188 186 185 184 182 181 181 186 194 200 206 212 215 220 222 222 216 211 206 201 194 198 195 194 191 178 164 149 153 138 115 166 248 231 205 146 145 137 136 137
187 198 200 194 194 192 193 190 188 187 192 199 206 212 217 223 228 233 235 233 231 228 225 220 223 229 232 235 232 222 201 187 168 266 254 214 196 268 153 141 150 155 154
184 223 205 198 196 196 196 196 195 196 199 206 214 218 222 228 235 238 241 243 240 238 236 236 239 243 247 251 255 253 249 232 225 246 291 221 285 215 189 168 176 180 175
184 219 209 195 197 198 198 200 201 203 208 214 219 223 229 236 240 244 248 250 250 247 240 242 243 252 258 263 268 277 275 264 249 255 305 273 232 221 266 214 208 202 199
181 221 210 195 199 201 203 204 204 208 214 219 222 227 233 240 248 258 257 254 249 248 246 245 248 254 264 275 282 288 288 283 258 289 282 292 219 307 267 227 218 211 214
190 200 215 206 200 199 203 209 212 215 221 224 227 231 236 237 249 267 265 263 257 251 244 243 249 260 272 284 284 282 285 281 256 262 265 284 298 230 244 238 219 213 216
210 192 192 196 201 184 180 215 228 221 225 226 233 241 243 239 230 233 257 271 269 263 246 235 236 256 291 270 290 282 288 268 260 268 259 283 277 270 260 237 222 221 225
198 187 188 197 195 174 187 219 213 202 233 243 238 224 228 225 234 241 261 273 282 287 254 224 210 256 262 288 298 295 275 275 260 260 269 264 254 247 246 227 218 220 235
196 188 186 192 206 186 175 203 187 195 200 202 210 226 222 218 218 221 238 245 264 329 9 279 302 302 285 248 251 254 260 264 260 271 256 251 237 220 212 194 202 216 240
207 189 197 195 219 205 174 194 188 194 213 227 232 223 220 224 228 237 265 272 301 289 291 344 331 286 261 251 261 255 265 275 281 275 264 241 221 214 169 190 194 208 225
193 189 200 204 218 210 185 206 203 202 216 223 226 226 239 246 256 267 269 283 292 275 271 262 284 233 273 273 263 256 265 308 306 276 256 231 227 193 178 182 180 199 184
205 200 202 203 209 201 196 205 209 210 223 230 228 240 245 257 276 282 287 289 293 40 165 199 208 249 232 246 264 248 250 268 275 285 264 257 233 223 234 222 263 251 282
189 186 182 198 204 218 214 213 205 215 216 232 241 239 250 274 278 278 276 296 253 202 200 187 206 201 249 247 257 261 263 232 257 270 225 239 242 232 221 233 233 284 282
205 192 201 201 218 230 227 208 212 224 231 220 228 223 239 251 265 291 327 287 220 196 218 211 211 200 242 260 267 271 269 271 254 248 226 249 253 251 211 228 268 271 272
152 183 197 209 218 226 211 214 209 199 206 198 180 213 226 246 246 243 216 209 224 218 235 250 243 198 233 261 270 299 274 250 249 214 244 216 211 211 220 250 244 242 245
178 188 190 204 212 210 212 210 202 205 188 189 201 215 221 230 240 243 255 230 214 207 204 208 231 239 216 253 274 283 256 271 245 254 234 219 224 216 204 224 247 242 244
179 191 197 193 194 195 189 191 183 185 198 199 204 198 226 226 255 260 245 219 206 220 249 260 260 262 234 237 249 257 248 251 261 249 245 246 241 229 233 235 223 216 251
163 170 175 176 172 176 182 190 194 199 195 214 205 229 229 241 232 228 229 231 244 261 268 273 267 261 249 242 244 257 257 262 261 242 249 247 252 253 251 237 227 212 245
151 160 162 164 167 164 171 185 184 180 209 195 214 228 221 216 229 241 242 254 258 279 296 293 281 278 251 243 236 235 253 265 268 265 255 253 258 254 249 250 243 239 241
145 153 158 156 157 164 155 174 164 203 173 191 208 223 216 219 232 233 227 246 278 289 293 292 285 282 277 257 254 241 240 261 273 265 259 264 259 250 248 247 250 239 239